Location: George Washington National Forest Helicopter Landing Site
(38.6463°N, 79.0851°W)
Time: 17:51:15
(UTC-04:00)

Vanguard 2 Rocket - All Passes

Search period start: 24 August 2019 00:00
Search period end: 03 September 2019 00:00
Orbit: 553 x 3327 km, 32.9° (Epoch: 24 August)

Date Brightness Start Highest point End Pass type
(mag) Time Alt. Az. Time Alt. Az. Time Alt. Az.
24 Aug - 02:08:15 10° SSW 02:16:29 33° SE 02:29:20 10° E visible
24 Aug - 04:19:06 10° WSW 04:30:47 64° SSE 04:49:31 10° E visible
24 Aug - 06:32:39 10° W 06:47:59 72° S 07:08:22 10° ESE daylight
24 Aug - 08:48:11 10° W 09:05:53 54° SSW 09:24:21 10° SE daylight
24 Aug - 11:07:19 10° W 11:21:58 26° SW 11:35:12 10° S daylight
25 Aug - 01:10:52 10° S 01:17:02 21° SE 01:25:45 10° E visible
25 Aug - 03:20:03 10° SW 03:30:00 55° SSE 03:46:41 10° E visible
25 Aug - 05:32:40 10° W 05:46:08 72° S 06:06:09 10° E visible
25 Aug - 07:47:15 10° W 08:03:55 61° SSW 08:23:35 10° SE daylight
25 Aug - 10:04:26 10° W 10:20:51 35° SW 10:36:41 10° SSE daylight
26 Aug - 00:16:22 10° SE 00:17:59 11° SE 00:19:45 10° ESE visible
26 Aug - 02:21:28 10° SW 02:29:49 43° SSE 02:43:46 10° E visible
26 Aug - 04:33:06 10° WSW 04:44:43 69° S 05:03:34 10° E visible
26 Aug - 06:46:50 10° W 07:01:57 67° SSW 07:22:07 10° ESE daylight
26 Aug - 09:02:37 10° W 09:19:22 44° SSW 09:37:09 10° SSE daylight
26 Aug - 11:24:04 10° W 11:34:58 17° SW 11:45:16 10° SSW daylight
27 Aug - 01:23:26 10° SSW 01:30:12 30° SE 01:40:47 10° E visible
27 Aug - 03:33:54 10° WSW 03:43:48 63° SSE 04:00:47 10° E visible
27 Aug - 05:46:51 10° W 06:00:10 70° S 06:20:04 10° ESE visible
27 Aug - 08:01:33 10° W 08:17:38 52° SSW 08:36:44 10° SE daylight
27 Aug - 10:19:50 10° W 10:34:02 26° SW 10:48:06 10° S daylight
28 Aug - 00:26:20 10° S 00:31:02 18° SE 00:37:24 10° E visible
28 Aug - 02:35:04 10° SW 02:43:26 52° SSE 02:57:58 10° E visible
28 Aug - 04:47:13 10° W 04:58:44 70° S 05:17:33 10° E visible
28 Aug - 07:01:05 10° W 07:15:50 59° SSW 07:35:34 10° SE daylight
28 Aug - 09:17:25 10° W 09:32:46 34° SW 09:49:15 10° SSE daylight
29 Aug - 01:36:40 10° SW 01:43:37 39° SSE 01:55:16 10° E visible
29 Aug - 03:47:56 10° WSW 03:57:46 67° S 04:14:49 10° E visible
29 Aug - 06:01:03 10° W 06:14:10 65° SSW 06:33:44 10° ESE visible
29 Aug - 08:16:03 10° W 08:31:15 42° SSW 08:49:21 10° SSE daylight
29 Aug - 10:36:46 10° WSW 10:47:14 17° SW 10:57:48 10° SSW daylight
30 Aug - 00:38:48 10° SSW 00:44:17 26° SE 00:52:36 10° E visible
30 Aug - 02:48:58 10° WSW 02:57:16 60° SSE 03:12:04 10° E visible
30 Aug - 05:01:25 10° W 05:12:47 68° S 05:31:25 10° ESE visible
30 Aug - 07:15:25 10° W 07:29:39 50° SSW 07:48:35 10° SE daylight
30 Aug - 09:32:57 10° W 09:46:08 25° SW 10:00:22 10° S daylight
30 Aug - 23:42:02 10° SSE 23:45:20 14° SE 23:49:27 10° ESE night (unlit)
31 Aug - 01:50:19 10° SW 01:57:17 49° SSE 02:09:30 10° E visible
31 Aug - 04:02:05 10° W 04:11:49 68° S 04:28:47 10° ESE visible
31 Aug - 06:15:20 10° W 06:28:07 56° SSW 06:47:06 10° SE visible
31 Aug - 08:30:58 10° W 08:44:49 32° SW 09:01:14 10° SSE daylight
01 Sep - 00:52:03 10° SSW 00:57:47 35° SSE 01:07:09 10° E visible
01 Sep - 03:03:02 10° WSW 03:11:17 65° S 03:26:07 10° E visible
01 Sep - 05:15:39 10° W 05:26:51 62° SSW 05:45:03 10° ESE visible
01 Sep - 07:30:01 10° W 07:43:24 40° SSW 08:01:02 10° SSE daylight
01 Sep - 09:50:11 10° WSW 09:59:34 16° SW 10:09:34 10° SSW daylight
01 Sep - 23:54:18 10° SSW 23:58:41 22° SE 00:04:55 10° E night (unlit)
02 Sep - 02:04:14 10° WSW 02:11:11 57° SSE 02:23:37 10° E visible
02 Sep - 04:16:18 10° W 04:25:54 65° S 04:42:37 10° ESE visible
02 Sep - 06:29:45 10° W 06:42:02 47° SSW 07:00:00 10° SE daylight
02 Sep - 08:46:41 10° W 08:58:24 23° SW 09:12:01 10° S daylight
02 Sep - 22:58:07 10° SSE 22:59:49 11° SE 23:01:43 10° ESE night (unlit)
